2016-05-30 13:12:39 r, 00.00m,0000592597Hz,0000000000c,0000000.000s, 046.4C,00002191
2016-05-30 13:22:39 r, 00.00m,0000592108Hz,0000000000c,0000000.000s, 051.2C,00002191
2016-05-30 13:32:40 r, 00.00m,0000591881Hz,0000000000c,0000000.000s, 053.5C,00002191
2016-05-30 13:42:39 r, 00.00m,0000591651Hz,0000000000c,0000000.000s, 055.1C,00002191
2016-05-30 13:52:39 r, 00.00m,0000591527Hz,0000000000c,0000000.000s, 056.0C,00002191
2016-05-30 14:02:40 r, 00.00m,0000591402Hz,0000000000c,0000000.000s, 056.4C,00002191
2016-05-30 14:12:39 r, 00.00m,0000591291Hz,0000000000c,0000000.000s, 057.0C,00002191
2016-05-30 14:22:39 r, 00.00m,0000591228Hz,0000000000c,0000000.000s, 058.0C,00002191
2016-05-30 14:32:39 r, 00.00m,0000592060Hz,0000000000c,0000000.000s, 054.1C,00002191
2016-05-30 14:42:39 r, 00.00m,0000592566Hz,0000000000c,0000000.000s, 050.6C,00002191
2016-05-30 14:52:39 r, 00.00m,0000592597Hz,0000000000c,0000000.000s, 049.6C,00002191
2016-05-30 15:02:39 r, 00.00m,0000592269Hz,0000000000c,0000000.000s, 050.9C,00002191
2016-05-30 15:12:39 r, 00.00m,0000591558Hz,0000000000c,0000000.000s, 054.7C,00002191
2016-05-30 15:22:39 r, 00.00m,0000591328Hz,0000000000c,0000000.000s, 056.7C,00002191
2016-05-30 15:32:39 r, 00.00m,0000591279Hz,0000000000c,0000000.000s, 057.3C,00002191
2016-05-30 15:42:39 r, 00.00m,0000591515Hz,0000000000c,0000000.000s, 056.4C,00002191
2016-05-30 15:52:39 r, 00.00m,0000591599Hz,0000000000c,0000000.000s, 055.4C,00002191
2016-05-30 16:02:40 r, 00.00m,0000591576Hz,0000000000c,0000000.000s, 055.4C,00002191
2016-05-30 16:12:39 r, 00.00m,0000591523Hz,0000000000c,0000000.000s, 056.0C,00002191
2016-05-30 16:22:39 r, 00.00m,0000591664Hz,0000000000c,0000000.000s, 055.1C,00002191
2016-05-30 16:32:40 r, 00.00m,0000591864Hz,0000000000c,0000000.000s, 054.1C,00002191
2016-05-30 16:42:39 r, 00.00m,0000591852Hz,0000000000c,0000000.000s, 053.8C,00002191
2016-05-30 16:52:39 r, 00.00m,0000591957Hz,0000000000c,0000000.000s, 052.8C,00002191
2016-05-30 17:02:39 r, 00.00m,0000592011Hz,0000000000c,0000000.000s, 051.8C,00002191
2016-05-30 17:12:39 r, 00.00m,0000591963Hz,0000000000c,0000000.000s, 052.5C,00002191
2016-05-30 17:22:39 r, 00.00m,0000592128Hz,0000000000c,0000000.000s, 052.2C,00002191
2016-05-30 17:32:39 r, 00.00m,0000592669Hz,0000000000c,0000000.000s, 048.6C,00002191
2016-05-30 17:42:39 r, 00.00m,0000593181Hz,0000000000c,0000000.000s, 045.1C,00002191
2016-05-30 17:52:40 r, 00.00m,0000593545Hz,0000000000c,0000000.000s, 042.5C,00002191
2016-05-30 18:02:39 r, 00.00m,0000593695Hz,0000000000c,0000000.000s, 040.9C,00002191
2016-05-30 18:12:39 r, 00.00m,0000593802Hz,0000000000c,0000000.000s, 040.2C,00002191
2016-05-30 18:22:39 r, 00.00m,0000593783Hz,0000000000c,0000000.000s, 039.9C,00002191
2016-05-30 18:32:39 r, 00.00m,0000593871Hz,0000000000c,0000000.000s, 039.6C,00002191
2016-05-30 18:42:39 r, 00.00m,0000593839Hz,0000000000c,0000000.000s, 039.3C,00002191
2016-05-30 18:52:39 r, 00.00m,0000594019Hz,0000000000c,0000000.000s, 038.3C,00002191
2016-05-30 19:02:41 r, 00.00m,0000593935Hz,0000000000c,0000000.000s, 038.0C,00002191
2016-05-30 19:12:39 r, 00.00m,0000594044Hz,0000000000c,0000000.000s, 037.7C,00002191
2016-05-30 19:22:39 r, 00.00m,0000594122Hz,0000000000c,0000000.000s, 037.0C,00002191
2016-05-30 19:32:42 r, 00.00m,0000594213Hz,0000000000c,0000000.000s, 036.4C,00002191
2016-05-30 19:42:39 r, 00.00m,0000594257Hz,0000000000c,0000000.000s, 035.7C,00002191
2016-05-30 19:52:39 r, 00.00m,0000594417Hz,0000000000c,0000000.000s, 035.1C,00002191
2016-05-30 20:02:39 r, 00.00m,0000594398Hz,0000000000c,0000000.000s, 034.8C,00002191
2016-05-30 20:12:39 r, 00.00m,0000594530Hz,0000000000c,0000000.000s, 034.1C,00002191
2016-05-30 20:22:39 r, 00.00m,0000594593Hz,0000000000c,0000000.000s, 033.8C,00002191
2016-05-30 20:32:40 r, 00.00m,0000594554Hz,0000000000c,0000000.000s, 033.5C,00002191
2016-05-30 20:42:39 r, 00.00m,0000594643Hz,0000000000c,0000000.000s, 033.1C,00002191
2016-05-30 20:52:39 r, 00.00m,0000485044Hz,0000000000c,0000000.000s, 032.8C,00002191
2016-05-30 21:02:39 r, 06.24m,0000269468Hz,0000000000c,0000000.000s, 032.5C,00002191
2016-05-30 21:12:39 r, 07.01m,0000133889Hz,0000000000c,0000000.000s, 031.9C,00002191
2016-05-30 21:22:39 r, 07.73m,0000068501Hz,0000000000c,0000000.000s, 031.5C,00002191
2016-05-30 21:32:39 r, 08.54m,0000032349Hz,0000000000c,0000000.000s, 031.2C,00002191
2016-05-30 21:42:39 r, 09.81m,0000010088Hz,0000000000c,0000000.000s, 030.9C,00002191
2016-05-30 21:52:39 r, 11.24m,0000002694Hz,0000000000c,0000000.000s, 030.6C,00002191
2016-05-30 22:02:40 r, 12.77m,0000000660Hz,0000000000c,0000000.000s, 030.6C,00002191
2016-05-30 22:12:39 r, 14.46m,0000000139Hz,0000000000c,0000000.000s, 030.2C,00002191
2016-05-30 22:22:39 r, 15.64m,0000000047Hz,0000009863c,0000000.021s, 030.2C,00002191
2016-05-30 22:32:39 r, 16.84m,0000000016Hz,0000029699c,0000000.064s, 030.2C,00002191
2016-05-30 22:42:39 r, 17.74m,0000000007Hz,0000068768c,0000000.149s, 029.9C,00002191
2016-05-30 22:52:39 r, 18.34m,0000000003Hz,0000119064c,0000000.258s, 029.9C,00002191
2016-05-30 23:02:39 r, 18.80m,0000000003Hz,0000180498c,0000000.392s, 029.6C,00002191
2016-05-30 23:12:39 r, 19.01m,0000000002Hz,0000220739c,0000000.479s, 029.6C,00002191
2016-05-30 23:22:39 r, 19.28m,0000000002Hz,0000283323c,0000000.615s, 029.6C,00002191
2016-05-30 23:32:39 r, 19.35m,0000000002Hz,0000301460c,0000000.654s, 029.6C,00002191
2016-05-30 23:42:39 r, 19.45m,0000000002Hz,0000333263c,0000000.723s, 029.6C,00002191
2016-05-30 23:52:39 r, 19.52m,0000000001Hz,0000353337c,0000000.767s, 029.6C,00002191
